Location: Klinovec
(50.3970°N, 12.9600°E)
Time: 19:37:28
(UTC+01:00)

N. Korean satellite - Pass Details

Date: 17 November 2019
Orbit: 456 x 506 km, 97.2° (Epoch: 07 December)

Event Time Altitude Azimuth Distance (km) Brightness Sun altitude
Rises 06:22:49 0° 10° (N) 2,625 10.2 -9.9°
Reaches altitude 10° 06:24:56 10° 8° (N) 1,733 9.3 -9.6°
Maximum altitude 06:28:39 67° 286° (WNW) 551 6.6 -9.0°
Drops below altitude 10° 06:32:18 10° 204° (SSW) 1,704 9.3 -8.4°
Sets 06:34:22 0° 201° (SSW) 2,576 10.2 -8.1°
